Location: Pinawa
(50.1500°N, 95.8830°W)
Time: 10:38:27
(UTC-06:00)

ISS - All Passes

Search period start: 01 March 2015 00:00
Search period end: 11 March 2015 01:00
Orbit: 397 x 408 km, 51.6° (Epoch: 01 March)

Date Brightness Start Highest point End Pass type
(mag) Time Alt. Az. Time Alt. Az. Time Alt. Az.
01 Mar - 09:54:42 10° S 09:57:04 19° SE 09:59:30 10° E daylight
01 Mar - 11:29:55 10° WSW 11:33:09 76° SSE 11:36:23 10° ENE daylight
01 Mar - 13:06:26 10° W 13:09:39 64° N 13:12:54 10° E daylight
01 Mar - 14:42:56 10° WNW 14:46:10 73° SSW 14:49:25 10° ESE daylight
01 Mar - 16:19:53 10° W 16:22:14 18° SW 16:24:32 10° S daylight
02 Mar - 09:03:05 10° SSE 09:04:19 12° SE 09:05:38 10° ESE daylight
02 Mar - 10:37:03 10° SW 10:40:13 52° SSE 10:43:22 10° ENE daylight
02 Mar - 12:13:23 10° W 12:16:37 67° N 12:19:52 10° ENE daylight
02 Mar - 13:49:56 10° WNW 13:53:11 85° NNE 13:56:26 10° ESE daylight
02 Mar - 15:26:33 10° W 15:29:24 29° SSW 15:32:16 10° SSE daylight
03 Mar - 09:44:20 10° SW 09:47:17 34° SSE 09:50:16 10° E daylight
03 Mar - 11:20:20 10° W 11:23:34 78° NNW 11:26:49 10° ENE daylight
03 Mar - 12:56:54 10° WNW 13:00:09 70° N 13:03:23 10° E daylight
03 Mar - 14:33:24 10° W 14:36:31 44° SSW 14:39:37 10° SE daylight
04 Mar - 08:51:52 10° SSW 08:54:24 22° SE 08:56:59 10° E daylight
04 Mar - 10:27:17 10° WSW 10:30:32 82° SSE 10:33:46 10° ENE daylight
04 Mar - 12:03:50 10° W 12:07:03 64° N 12:10:17 10° E daylight
04 Mar - 13:40:19 10° WNW 13:43:32 66° SSW 13:46:45 10° ESE daylight
04 Mar - 15:17:25 10° W 15:19:32 16° SW 15:21:37 10° S daylight
05 Mar - 07:59:54 10° S 08:01:34 14° SE 08:03:18 10° ESE daylight
05 Mar - 09:34:19 10° SW 09:37:30 58° SSE 09:40:41 10° ENE daylight
05 Mar - 11:10:43 10° W 11:13:56 66° N 11:17:10 10° E daylight
05 Mar - 12:47:14 10° WNW 12:50:29 89° WNW 12:53:44 10° ESE daylight
05 Mar - 14:23:54 10° W 14:26:40 25° SW 14:29:24 10° SSE daylight
06 Mar - 08:41:28 10° SW 08:44:29 38° SSE 08:47:32 10° E daylight
06 Mar - 10:17:34 10° W 10:20:48 74° N 10:24:03 10° ENE daylight
06 Mar - 11:54:08 10° WNW 11:57:23 73° N 12:00:37 10° E daylight
06 Mar - 13:30:38 10° W 13:33:42 39° SSW 13:36:45 10° SE daylight
07 Mar - 07:48:51 10° SSW 07:51:31 24° SE 07:54:14 10° E daylight
07 Mar - 09:24:26 10° WSW 09:27:41 88° SSE 09:30:56 10° ENE daylight
07 Mar - 11:01:00 10° W 11:04:13 65° N 11:07:27 10° E daylight
07 Mar - 12:37:28 10° WNW 12:40:40 60° SSW 12:43:52 10° ESE daylight
07 Mar - 14:14:46 10° WSW 14:16:37 14° SW 14:18:25 10° S daylight
08 Mar - 07:56:37 10° S 07:58:35 15° SE 08:00:37 10° E daylight
08 Mar - 09:31:22 10° WSW 09:34:33 64° SSE 09:37:47 10° ENE daylight
08 Mar - 11:07:49 10° W 11:11:02 65° N 11:14:15 10° E daylight
08 Mar - 12:44:19 10° WNW 12:47:34 84° SSW 12:50:48 10° ESE daylight
08 Mar - 14:21:03 10° W 14:23:41 23° SW 14:26:17 10° SSE daylight
09 Mar - 08:38:24 10° SW 08:41:29 42° SSE 08:44:34 10° E daylight
09 Mar - 10:14:36 10° W 10:17:49 71° N 10:21:04 10° ENE daylight
09 Mar - 11:51:08 10° WNW 11:54:23 77° N 11:57:38 10° E daylight
09 Mar - 13:27:40 10° W 13:30:40 35° SSW 13:33:40 10° SE daylight
10 Mar - 07:45:37 10° SSW 07:48:25 27° SSE 07:51:15 10° E daylight
10 Mar - 09:21:22 10° WSW 09:24:36 87° NNW 09:27:52 10° ENE daylight
10 Mar - 10:57:56 10° WNW 11:01:10 66° N 11:04:23 10° E daylight
10 Mar - 12:34:24 10° WNW 12:37:35 54° SSW 12:40:45 10° SE daylight
10 Mar - 14:11:59 10° WSW 14:13:28 12° SW 14:14:54 10° SSW daylight
